User: anonymous   Login
Location: Unspecified
(0.0000°N, 0.0000°E)
Time: 00:22:24
(UTC+00:00)
Language:

A-11 Canister half - Orbit

View from above orbital plane
View from above orbital plane
View from above satellite
View from above satellite

Ground track
Ground track

The orbit data is extracted from the following two-line orbital elements,

1    53U 60009E   19107.18566750 -.00000102 +00000-0 -18003-3 0  9999
2    53 047.2745 136.5854 0100711 258.6182 100.3279 12.17226969616520
Epoch (UTC): 17 April 2019 04:27:21
Eccentricity: 0.0100711
inclination: 47.2745°
perigee height: 1524 km
apogee height: 1685 km
right ascension of ascending node: 136.5854°
argument of perigee: 258.6182°
revolutions per day: 12.17226969
mean anomaly at epoch: 100.3279°
orbit number at epoch: 61652

The dashed part of the orbit path shows where the satellite is in the earth's shadow,  

DLR